BAW12TB KTPA-EGKK

Flight info

Callsign BAW12TB
Flight time N/A
Altitude 37000
Route BAYPO2 CAMJO Q99 POLYY DCT DADDS Q87 GEARS DCT BBOBO Q22 LLUND/N0478F390 Q22 FOXWD DCT ALLEX N431B ELSIR/M084F390 DCT 50N050W 52N040W 53N030W 53N020W DCT MALOT/N0480F390 DCT GISTI/N0483F410 DCT NORLA DCT PEWBI DCT TACQI DCT FONZU DCT ELRIP DCT OTMET
Aircraft B772/H-SDE2E3FGHIJ5LORVWXY/LB1D1

Departure

Time N/A
Airport Tampa International Airport (KTPA)

Arrival

Time 2026-05-05 05:03
Airport London Gatwick Airport (EGKK)
Time Latitude Longitude Altitude Speed Heading
2026-05-05 04:42 50.87653 -3.12466 37015 ft 488 kts 92°
2026-05-05 04:43 50.87460 -3.01696 37014 ft 489 kts 92°
2026-05-05 04:43 50.87256 -2.90897 37012 ft 489 kts 92°
2026-05-05 04:44 50.87044 -2.80178 36993 ft 490 kts 92°
2026-05-05 04:44 50.86820 -2.69348 36997 ft 491 kts 92°
2026-05-05 04:45 50.86587 -2.58572 36999 ft 492 kts 92°
2026-05-05 04:45 50.86342 -2.47726 37000 ft 492 kts 92°
2026-05-05 04:46 50.86089 -2.36941 37001 ft 493 kts 92°
2026-05-05 04:46 50.85958 -2.31525 36803 ft 492 kts 93°
2026-05-05 04:46 50.85825 -2.26092 35948 ft 487 kts 93°
2026-05-05 04:46 50.85693 -2.20813 34902 ft 472 kts 93°
2026-05-05 04:47 50.85562 -2.15676 33840 ft 460 kts 92°
2026-05-05 04:47 50.85433 -2.10666 32611 ft 450 kts 94°
2026-05-05 04:47 50.85306 -2.05803 31492 ft 446 kts 95°
2026-05-05 04:47 50.85174 -2.00870 30721 ft 450 kts 95°
2026-05-05 04:48 50.85035 -1.95848 29900 ft 462 kts 96°
2026-05-05 04:48 50.84890 -1.90731 28961 ft 463 kts 95°
2026-05-05 04:48 50.84751 -1.85740 28117 ft 442 kts 95°
2026-05-05 04:48 50.84622 -1.81058 27376 ft 420 kts 95°
2026-05-05 04:49 50.84494 -1.76537 26663 ft 405 kts 95°
2026-05-05 04:49 50.84364 -1.72103 25964 ft 403 kts 95°
2026-05-05 04:49 50.84226 -1.67586 25249 ft 418 kts 95°
2026-05-05 04:49 50.84080 -1.62904 24507 ft 431 kts 94°
2026-05-05 04:50 50.83936 -1.58215 23729 ft 419 kts 94°
2026-05-05 04:50 50.83798 -1.53702 22886 ft 399 kts 94°
2026-05-05 04:50 50.83667 -1.49411 22162 ft 382 kts 94°
2026-05-05 04:50 50.83539 -1.45322 21512 ft 372 kts 94°
2026-05-05 04:51 50.83407 -1.41217 20878 ft 378 kts 94°
2026-05-05 04:51 50.83267 -1.36942 20207 ft 399 kts 94°
2026-05-05 04:51 50.83118 -1.32467 19510 ft 407 kts 94°
2026-05-05 04:51 50.82975 -1.28117 18818 ft 392 kts 94°
2026-05-05 04:52 50.82836 -1.23904 18157 ft 375 kts 94°
2026-05-05 04:52 50.82700 -1.19849 17460 ft 364 kts 94°
2026-05-05 04:52 50.82564 -1.15858 16841 ft 364 kts 94°
2026-05-05 04:52 50.82421 -1.11759 16232 ft 384 kts 94°
2026-05-05 04:53 50.82274 -1.07571 15592 ft 384 kts 94°
2026-05-05 04:53 50.82129 -1.03448 14953 ft 366 kts 93°
2026-05-05 04:53 50.81990 -0.99498 14360 ft 350 kts 94°
2026-05-05 04:53 50.82046 -0.95731 13658 ft 336 kts 81°
2026-05-05 04:54 50.82784 -0.92268 12384 ft 341 kts 60°
2026-05-05 04:54 50.84231 -0.89193 11492 ft 357 kts 49°
2026-05-05 04:54 50.85942 -0.86260 10844 ft 360 kts 46°
2026-05-05 04:54 50.87636 -0.83477 10211 ft 339 kts 45°
2026-05-05 04:55 50.89238 -0.80849 9542 ft 322 kts 46°
2026-05-05 04:55 50.90756 -0.78345 8850 ft 308 kts 45°
2026-05-05 04:55 50.92191 -0.75951 8176 ft 297 kts 45°
2026-05-05 04:55 50.93591 -0.73603 7522 ft 288 kts 45°
2026-05-05 04:56 50.94946 -0.71312 6864 ft 281 kts 45°
2026-05-05 04:56 50.96270 -0.69054 6227 ft 276 kts 45°
2026-05-05 04:56 50.97559 -0.66835 5569 ft 271 kts 45°
2026-05-05 04:56 50.98793 -0.64695 5139 ft 258 kts 46°
2026-05-05 04:57 50.99976 -0.62623 4797 ft 250 kts 45°
2026-05-05 04:57 51.01138 -0.60581 4455 ft 250 kts 46°
2026-05-05 04:57 51.02315 -0.58511 4151 ft 252 kts 46°
2026-05-05 04:57 51.03490 -0.56453 3820 ft 250 kts 44°
2026-05-05 04:58 51.04731 -0.54522 3493 ft 248 kts 41°
2026-05-05 04:58 51.05974 -0.52680 3180 ft 247 kts 41°
2026-05-05 04:58 51.07213 -0.50851 3029 ft 237 kts 41°
2026-05-05 04:58 51.08399 -0.49104 3003 ft 229 kts 41°
2026-05-05 04:59 51.09560 -0.47393 2991 ft 222 kts 41°
2026-05-05 04:59 51.10632 -0.45750 2988 ft 205 kts 48°
2026-05-05 04:59 51.11221 -0.43756 3010 ft 203 kts 69°
2026-05-05 04:59 51.11650 -0.41597 2898 ft 203 kts 70°
2026-05-05 05:00 51.11989 -0.39477 2599 ft 191 kts 74°
2026-05-05 05:00 51.12267 -0.37480 2369 ft 178 kts 74°
2026-05-05 05:00 51.12524 -0.35611 2123 ft 169 kts 74°
2026-05-05 05:00 51.12780 -0.33770 1907 ft 170 kts 74°
2026-05-05 05:01 51.13033 -0.31932 1678 ft 170 kts 74°
2026-05-05 05:01 51.13280 -0.30145 1446 ft 162 kts 75°
2026-05-05 05:01 51.13506 -0.28493 1245 ft 144 kts 74°
2026-05-05 05:01 51.13710 -0.27021 1058 ft 130 kts 75°
2026-05-05 05:02 51.13901 -0.25641 862 ft 129 kts 75°
2026-05-05 05:02 51.14104 -0.24237 695 ft 131 kts 75°
2026-05-05 05:02 51.14300 -0.22823 536 ft 131 kts 76°
2026-05-05 05:02 51.14493 -0.21411 343 ft 129 kts 76°
2026-05-05 05:03 51.14680 -0.20021 221 ft 125 kts 76°
2026-05-05 05:03 51.14843 -0.18832 217 ft 93 kts 77°
2026-05-05 05:03 51.14957 -0.18010 215 ft 58 kts 77°
2026-05-05 05:03 51.15018 -0.17570 219 ft 27 kts 77°
2026-05-05 05:04 51.15062 -0.17356 214 ft 17 kts 62°
2026-05-05 05:04 51.15107 -0.17241 218 ft 7 kts 54°
2026-05-05 05:04 51.15147 -0.17203 218 ft 7 kts
2026-05-05 05:04 51.15186 -0.17246 218 ft 7 kts 317°
2026-05-05 05:05 51.15225 -0.17292 218 ft 7 kts 324°
2026-05-05 05:05 51.15267 -0.17336 220 ft 7 kts 332°
2026-05-05 05:05 51.15316 -0.17358 217 ft 8 kts 348°
2026-05-05 05:05 51.15369 -0.17375 215 ft 8 kts 347°
2026-05-05 05:06 51.15432 -0.17398 214 ft 13 kts 347°
2026-05-05 05:06 51.15523 -0.17430 218 ft 7 kts 347°
2026-05-05 05:06 51.15569 -0.17437 213 ft 7 kts 21°
2026-05-05 05:06 51.15593 -0.17369 218 ft 7 kts 72°
2026-05-05 05:07 51.15601 -0.17291 215 ft 7 kts 96°
2026-05-05 05:07 51.15571 -0.17227 215 ft 7 kts 134°
2026-05-05 05:07 51.15559 -0.17208 220 ft 4 kts 134°
2026-05-05 05:07 51.15543 -0.17181 218 ft 1 kts 135°
2026-05-05 05:08 51.15541 -0.17178 218 ft 0 kts 135°